NOAA 16 DEB, 42407

Orbit data source: Space-Track

NOAA 16 DEB, 42407 is space debris in SSO originally from a launch on Thu, 21 Sep 2000 UTC launched from the Air Force Western Test Range (AFWTR). Debris objects in space refer to the collection of defunct objects orbiting the Earth. Examples of debris include non-operational satellites, rocket bodies, and fragments generated from explosions, collisions, or faulty payload assembly.

Loading next visibility...
Identifier
42407, 2000-055TB
Orbit
SSO
Country
Flag of USUS
Related business
Manufacturer
Unknown
Mission
Spacecraft
Bus & Motor
Unknown
Mass
Unknown
Launch date (UTC)
2000-09-21 (25 years ago)
Launch vehicle
Unknown
Launch site
Air Force Western Test Range (AFWTR)
Object type
Payload
Rocket body
Debris
Shape & HBR
Unknown shape, 0.1 m
Radar Cross Section
Small (<0.1 m²)

Expand to show TLE details & history
Last TLE update: 1 day ago

TLE from 1 day ago
0 NOAA 16 DEB
1 42407U 00055TB  25341.96337842  .00059873  00000-0  83554-2 0  9993
2 42407  98.9686 161.4382 0009631 216.2363 143.8193 14.77349505502160
Epoch: 2025-12-07T23:07Z
TLE epoch observation values (Epoch: 2025-12-07T23:07:15.895Z)
Latitude
0.00001°
Longitude
97.65274°
Altitude
646.144 km
Speed
7.532 km/s
True Right ascension
10h 45m 45s
True Declination
0° 00' 00"
Sunlit
Object was in daylight at epoch
Visualization orbit readout
Latitude
Unknown
Longitude
Unknown
Altitude
Unknown
Speed
Unknown
Apparent Right ascension
Unknown
Apparent Declination
Unknown
Sunlit
N/A
Visualization observer readout
Local Sidereal Time
05:18:42
Azimuth
Unknown
Elevation
Unknown
Doppler factor
Unknown
Orbital elements
Apogee altitude
641.552 km
Perigee altitude
628.044 km
Semi-major axis
7,012.935 km
Eccentricity
0.00096
Inclination
98.9686°
RAAN
161.4382°
Arg. of periapsis
216.2363°
True anomaly
143.88439°
Mean anomaly
143.8193°
Eccentric anomaly
143.85185°
Mean motion
3.69567 °/min
Orbital period
97.41 mins
BSTAR
0.0083554
Loading maneuver chart data...
Computing Atmospheric mass density...

Documentation

Showing up to 5 results
|